Boothville, LA

9:07 AM CDT on April 25, 2017 (GMT -0500)
Boothville

Weather History for KBVE - May, 2013

Change the Weather History Date:

Monday, May 6, 2013

  Actual Average (KAXO) Record (KAXO)
Temperature  
Mean Temperature 60 °F -  
Max Temperature 69 °F 75 °F 84 °F (2012)
Min Temperature 53 °F 72 °F 59 °F (2013)
Degree Days  
Heating Degree Days 4    
Growing Degree Days 10 (Base 50)    
Moisture  
Dew Point 49 °F    
Average Humidity 63    
Maximum Humidity 83    
Minimum Humidity 48    
Precipitation  
Precipitation 0.00 in - - ()
Sea Level Pressure  
Sea Level Pressure 30.03 in    
Wind  
Wind Speed 9 mph (West)    
Max Wind Speed 16 mph    
Max Gust Speed 23 mph    
Visibility 10 miles    
Events      
Averages and records for this station are not official NWS values.
T = Trace of Precipitation, MM = Missing Value Source: NWS Daily Summary

Daily Weather History Graph

Daily Weather History Graph

Search for Another Location

Airport or City:

Trip Planner

Search our weather history database for the weather conditions in past years. The results will help you decide how hot, cold, wet, or windy it might be!

Date:

Astronomy

May. 06, 2013 Rise Set
Actual Time 6:11 AM CDT 7:37 PM CDT
Civil Twilight 5:46 AM CDT 8:02 PM CDT
Nautical Twilight 5:15 AM CDT 8:33 PM CDT
Astronomical Twilight 4:44 AM CDT 9:04 PM CDT
Moon 3:58 AM CDT (5/6) 4:49 PM CDT (5/6)
Length of Visible Light 14h 16m
Length of Day
13h 25m
Waning Crescent, 11% of the Moon is Illuminated
May 6
Waning Crescent
May 9
New
May 17
First Quarter
May 24
Full
May 31
Last Quarter

Hourly Weather History & Observations

Time (CDT) Temp. Dew Point Humidity Pressure Visibility Wind Dir Wind Speed Gust Speed Precip Events Conditions
12:51 AM 57.9 °F 43.0 °F 58% 30.05 in 10.0 mi NNW 9.2 mph - N/A   Clear
1:51 AM 57.0 °F 44.1 °F 62% 30.04 in 10.0 mi NNW 5.8 mph - N/A   Clear
2:51 AM 57.0 °F 44.1 °F 62% 30.03 in 10.0 mi NNW 6.9 mph - N/A   Clear
3:51 AM 54.0 °F 48.0 °F 80% 30.03 in 10.0 mi West 4.6 mph - N/A   Clear
4:51 AM 53.1 °F 48.0 °F 83% 30.03 in 10.0 mi West 5.8 mph - N/A   Clear
5:51 AM 53.1 °F 46.9 °F 80% 30.04 in 10.0 mi West 4.6 mph - N/A   Clear
6:51 AM 55.9 °F 46.0 °F 69% 30.06 in 10.0 mi West 5.8 mph - N/A   Clear
7:51 AM 60.1 °F 46.9 °F 62% 30.07 in 10.0 mi West 4.6 mph - N/A   Clear
8:51 AM 63.0 °F 48.9 °F 60% 30.08 in 10.0 mi West 9.2 mph - N/A   Clear
9:51 AM 64.0 °F 45.0 °F 50% 30.08 in 10.0 mi West 10.4 mph - N/A   Clear
10:51 AM 64.9 °F 46.0 °F 50% 30.08 in 10.0 mi West 10.4 mph - N/A   Clear
11:51 AM 66.0 °F 46.0 °F 48% 30.07 in 10.0 mi WSW 11.5 mph - N/A   Clear
12:51 PM 66.9 °F 48.0 °F 51% 30.06 in 10.0 mi WSW 13.8 mph - N/A   Clear
1:51 PM 66.9 °F 48.9 °F 52% 30.04 in 10.0 mi WSW 13.8 mph - N/A   Clear
2:51 PM 66.9 °F 48.0 °F 51% 30.01 in 10.0 mi WSW 15.0 mph - N/A   Clear
3:51 PM 68.0 °F 51.1 °F 55% 29.99 in 10.0 mi WSW 16.1 mph 23.0 mph N/A   Clear
4:51 PM 68.0 °F 51.1 °F 55% 29.98 in 10.0 mi WSW 16.1 mph 21.9 mph N/A   Clear
5:51 PM 68.0 °F 51.1 °F 55% 29.98 in 10.0 mi WSW 16.1 mph 23.0 mph N/A   Clear
6:51 PM 66.0 °F 53.1 °F 63% 29.98 in 10.0 mi WSW 15.0 mph 21.9 mph N/A   Clear
7:51 PM 66.0 °F 54.0 °F 65% 29.99 in 10.0 mi West 13.8 mph 19.6 mph N/A   Clear
8:51 PM 66.0 °F 54.0 °F 65% 30.01 in 10.0 mi West 11.5 mph - N/A   Clear
9:51 PM 64.0 °F 55.9 °F 75% 30.02 in 10.0 mi West 8.1 mph - N/A   Clear
10:51 PM 64.0 °F 57.0 °F 78% 30.02 in 10.0 mi West 6.9 mph - N/A   Clear
11:51 PM 64.0 °F 57.0 °F 78% 30.02 in 10.0 mi West 8.1 mph - N/A   Clear